CW7858 Murcia ES current weather conditions

sailwx.info

Wind from 085

Air temperature 11.7° C
Dewpoint 8.3° C

Last reported at 2019-Nov-18 01:03 UTC.
Time now 2019-Nov-18 01:35 UTC

Location: N 37°60' W 001°08'.
View on Google Maps.

See reports from other nearby stations

  
Tides and Currents Weather Stations Pressure Air Temp Water Temp Dewpoint Dewpoint Depression Visibility Wind Speed Wind Dir Waves Ship Positions
date/time (UTC)wind fromknots sea level pressurealtimeterstation pressurevisibilityair tempwater tempwave heightnotes
2019-Nov-18 01:03 085 11.7
2019-Nov-18 00:52 085 1 gusting 3 11.7
2019-Nov-18 00:42 095 1 gusting 2 11.1
2019-Nov-18 00:32 058 11.1
2019-Nov-18 00:22 352 1 gusting 2 11.1
2019-Nov-18 00:12 234 11.1
2019-Nov-18 00:02 234 0 gusting 1 11.7
2019-Nov-17 23:52 234 11.7
2019-Nov-17 23:42 234 12.2
2019-Nov-17 23:32 234 0 gusting 3 12.2
2019-Nov-17 23:22 234 12.2
2019-Nov-17 23:12 234 12.2
2019-Nov-17 23:02 234 12.2
2019-Nov-17 22:52 234 12.2
2019-Nov-17 22:42 234 11.7
2019-Nov-17 22:32 234 11.7
2019-Nov-17 22:22 234 11.7
2019-Nov-17 22:12 234 11.7
2019-Nov-17 22:02 234 11.7
2019-Nov-17 21:52 234 0 gusting 1 11.7
2019-Nov-17 21:42 234 11.7
2019-Nov-17 21:32 241 0 gusting 5 11.7
2019-Nov-17 21:22 205 1 gusting 4 11.7
2019-Nov-17 21:12 192 12.2
2019-Nov-17 21:02 200 12.2
2019-Nov-17 20:52 200 12.2
2019-Nov-17 20:42 200 12.2
2019-Nov-17 20:32 200 12.8
2019-Nov-17 20:22 199 12.2
2019-Nov-17 20:12 200 12.2
2019-Nov-17 20:02 200 12.2
2019-Nov-17 19:52 200 12.2
2019-Nov-17 19:42 200 0 gusting 1 12.2
2019-Nov-17 19:32 199 12.2
2019-Nov-17 19:22 199 12.8
2019-Nov-17 19:12 171 2 gusting 4 13.3
2019-Nov-17 19:03 346 13.9
2019-Nov-17 18:52 346 13.9
2019-Nov-17 18:42 346 14.4
2019-Nov-17 18:32 346 14.4
2019-Nov-17 18:22 360 14.4
2019-Nov-17 18:12 360 14.4
2019-Nov-17 18:02 360 15.0
2019-Nov-17 17:52 360 15.0
2019-Nov-17 17:42 360 15.6
2019-Nov-17 17:32 360 15.6
2019-Nov-17 17:22 360 15.6
2019-Nov-17 17:12 360 16.1
2019-Nov-17 17:02 299 0 gusting 2 16.1
2019-Nov-17 16:52 299 0 gusting 1 16.1
2019-Nov-17 16:42 299 0 gusting 1 16.7
2019-Nov-17 16:32 299 16.7
2019-Nov-17 16:22 299 0 gusting 2 17.2
2019-Nov-17 16:12 299 17.2
2019-Nov-17 16:02 275 1 gusting 4 16.7
2019-Nov-17 15:52 264 16.7
2019-Nov-17 15:42 260 0 gusting 2 16.7
2019-Nov-17 15:32 260 3 gusting 6 17.2
2019-Nov-17 15:22 253 3 gusting 6 17.8
2019-Nov-17 15:12 280 2 gusting 6 18.3
2019-Nov-17 15:03 268 0 gusting 4 18.3
2019-Nov-17 14:52 270 18.3
2019-Nov-17 14:42 199 1 gusting 6 18.3
2019-Nov-17 14:32 263 0 gusting 5 18.3
2019-Nov-17 14:22 271 0 gusting 2 18.3
2019-Nov-17 14:12 268 0 gusting 5 17.8
2019-Nov-17 14:02 256 1 gusting 6 17.2
2019-Nov-17 13:52 254 4 gusting 6 17.2
2019-Nov-17 13:42 230 1 gusting 9 17.2
2019-Nov-17 13:32 198 2 gusting 6 16.7
2019-Nov-17 13:22 265 3 gusting 7 16.7
2019-Nov-17 13:12 260 2 gusting 9 16.7
2019-Nov-17 13:02 224 5 gusting 9 16.7
2019-Nov-17 12:52 205 3 gusting 6 16.7
2019-Nov-17 12:42 268 4 gusting 8 16.7
2019-Nov-17 12:33 230 2 gusting 9 16.1
2019-Nov-17 12:22 258 4 gusting 6 15.6
2019-Nov-17 12:12 277 4 gusting 6 15.6
2019-Nov-17 12:02 234 3 gusting 8 15.6
2019-Nov-17 11:52 234 1 gusting 6 15.6
2019-Nov-17 11:42 275 4 gusting 8 15.6
2019-Nov-17 11:32 263 5 gusting 8 15.0
2019-Nov-17 11:22 212 2 gusting 6 14.4
2019-Nov-17 11:12 254 4 gusting 6 14.4
2019-Nov-17 11:02 241 1 gusting 6 14.4
2019-Nov-17 10:52 243 5 gusting 6 14.4
2019-Nov-17 10:42 150 1 gusting 6 13.9
2019-Nov-17 10:32 241 3 gusting 6 13.9
2019-Nov-17 10:22 236 2 gusting 6 14.4
2019-Nov-17 10:12 246 13.9
2019-Nov-17 10:02 246 0 gusting 2 13.3
2019-Nov-17 09:52 251 0 gusting 1 12.8
2019-Nov-17 09:42 251 0 gusting 2 12.2
2019-Nov-17 09:32 253 11.7
2019-Nov-17 09:22 253 11.1
2019-Nov-17 09:12 253 10.6
2019-Nov-17 09:02 253 10.0
2019-Nov-17 08:52 253 9.4
2019-Nov-17 08:42 263 1 gusting 4 8.9
2019-Nov-17 08:32 224 1 gusting 2 8.3
2019-Nov-17 08:22 224 0 gusting 2 7.8
2019-Nov-17 08:12 224 1 gusting 3 6.7
2019-Nov-17 08:02 224 0 gusting 2 6.1
2019-Nov-17 07:52 222 0 gusting 2 6.1
2019-Nov-17 07:42 222 0 gusting 2 6.1
2019-Nov-17 07:32 222 1 gusting 3 6.1
2019-Nov-17 07:22 210 0 gusting 2 6.1
2019-Nov-17 07:12 200 5.6
2019-Nov-17 07:02 198 0 gusting 1 5.6
2019-Nov-17 06:52 198 0 gusting 1 5.6
2019-Nov-17 06:42 198 1 gusting 2 6.1
2019-Nov-17 06:32 198 0 gusting 1 6.1
2019-Nov-17 06:22 198 6.1
2019-Nov-17 06:12 209 1 gusting 4 6.1
2019-Nov-17 06:02 206 0 gusting 2 6.1
2019-Nov-17 05:52 209 0 gusting 3 6.1
2019-Nov-17 05:42 222 0 gusting 2 6.1
2019-Nov-17 05:32 267 6.1
2019-Nov-17 05:22 267 6.7
2019-Nov-17 05:12 267 6.7
2019-Nov-17 05:02 267 7.2
2019-Nov-17 04:52 267 7.2
2019-Nov-17 04:42 267 0 gusting 2 7.2
2019-Nov-17 04:32 267 0 gusting 2 6.7
2019-Nov-17 04:22 263 2 gusting 4 7.2
2019-Nov-17 04:12 239 7.2
2019-Nov-17 04:02 239 7.2
2019-Nov-17 03:52 239 0 gusting 2 7.2
2019-Nov-17 03:42 239 7.2
2019-Nov-17 03:32 243 7.8
2019-Nov-17 03:22 243 7.8
2019-Nov-17 03:12 243 7.8
2019-Nov-17 03:02 263 0 gusting 6 7.8
2019-Nov-17 02:52 254 7.8
2019-Nov-17 02:42 254 7.8
2019-Nov-17 02:33 254 7.8
2019-Nov-17 02:22 254 7.8
2019-Nov-17 02:12 254 0 gusting 2 7.8
2019-Nov-17 02:02 254 0 gusting 2 8.3
2019-Nov-17 01:53 254 8.3
2019-Nov-17 01:45 254 8.9
2019-Nov-17 01:32 256 8.9
2019-Nov-17 01:22 256 8.9
2019-Nov-17 01:12 254 8.9
2019-Nov-17 01:02 254 0 gusting 3 8.9
2019-Nov-17 00:52 277 8.9
2019-Nov-17 00:42 277 9.4
2019-Nov-17 00:32 277 9.4
2019-Nov-17 00:22 277 1 gusting 4 9.4
2019-Nov-17 00:12 288 2 gusting 4 9.4
2019-Nov-17 00:02 257 0 gusting 3 9.4
2019-Nov-16 23:52 256 0 gusting 4 10.0
2019-Nov-16 23:42 258 2 gusting 6 10.0
2019-Nov-16 23:32 294 3 gusting 6 10.6
2019-Nov-16 23:22 284 1 gusting 8 10.6
2019-Nov-16 23:12 261 2 gusting 6 10.6
2019-Nov-16 23:02 251 2 gusting 5 10.6
2019-Nov-16 22:52 256 3 gusting 6 10.6
2019-Nov-16 22:42 253 4 gusting 6 10.6
2019-Nov-16 22:32 253 2 gusting 6 11.1
2019-Nov-16 22:22 236 2 gusting 4 11.1
2019-Nov-16 22:12 254 1 gusting 4 11.1
2019-Nov-16 22:02 215 0 gusting 3 11.1
2019-Nov-16 21:52 224 11.1
2019-Nov-16 21:42 232 1 gusting 5 11.7
2019-Nov-16 21:32 239 0 gusting 5 12.2
2019-Nov-16 21:22 295 2 gusting 7 12.2
2019-Nov-16 21:12 306 5 gusting 10 12.2
2019-Nov-16 21:02 284 6 gusting 13 12.2
2019-Nov-16 20:52 292 4 gusting 8 12.2
2019-Nov-16 20:42 246 4 gusting 7 12.2
2019-Nov-16 20:32 282 4 gusting 7 12.8
2019-Nov-16 20:22 240 6 gusting 10 12.2
2019-Nov-16 20:12 275 5 gusting 11 12.2
2019-Nov-16 20:02 246 4 gusting 10 12.2
2019-Nov-16 19:52 291 3 gusting 11 12.8
2019-Nov-16 19:42 281 2 gusting 10 12.8
2019-Nov-16 19:32 292 3 gusting 8 12.8
2019-Nov-16 19:22 294 4 gusting 6 12.2
2019-Nov-16 19:12 271 3 gusting 6 12.2
2019-Nov-16 19:02 289 3 gusting 6 12.2
2019-Nov-16 18:52 264 3 gusting 6 12.2
2019-Nov-16 18:42 240 1 gusting 3 12.8
2019-Nov-16 18:32 253 0 gusting 2 12.8
2019-Nov-16 18:22 287 2 gusting 5 12.8
2019-Nov-16 18:12 289 0 gusting 4 12.8
2019-Nov-16 18:02 246 0 gusting 2 13.3
2019-Nov-16 17:52 248 0 gusting 2 13.9
2019-Nov-16 17:42 357 1 gusting 2 13.9
2019-Nov-16 17:32 319 0 gusting 2 13.9
2019-Nov-16 17:22 325 1 gusting 6 14.4
2019-Nov-16 17:12 281 4 gusting 6 14.4
2019-Nov-16 17:02 340 0 gusting 1 14.4
2019-Nov-16 16:52 296 0 gusting 4 15.0
2019-Nov-16 16:42 360 1 gusting 8 15.0
2019-Nov-16 16:32 013 0 gusting 9 15.0
2019-Nov-16 16:22 073 3 gusting 9 15.6
2019-Nov-16 16:12 323 3 gusting 6 15.6
2019-Nov-16 16:02 292 2 gusting 10 15.6
2019-Nov-16 15:52 304 3 gusting 12 15.6
2019-Nov-16 15:42 325 6 gusting 12 15.6
2019-Nov-16 15:32 318 6 gusting 12 15.6
2019-Nov-16 15:22 257 6 gusting 11 15.6
2019-Nov-16 15:12 010 4 gusting 13 15.6
2019-Nov-16 15:02 343 5 gusting 17 15.6
2019-Nov-16 14:52 289 7 gusting 11 16.1
2019-Nov-16 14:42 304 6 gusting 14 15.6
2019-Nov-16 14:32 299 3 gusting 13 15.6
2019-Nov-16 14:22 305 7 gusting 15 15.6
2019-Nov-16 14:12 308 7 gusting 17 15.6
2019-Nov-16 14:02 325 6 gusting 15 15.0
2019-Nov-16 13:52 010 4 gusting 10 15.6
2019-Nov-16 13:42 315 6 gusting 14 15.0
2019-Nov-16 13:32 299 6 gusting 13 15.0
2019-Nov-16 13:22 305 8 gusting 17 15.0
2019-Nov-16 13:12 285 7 gusting 16 15.0
2019-Nov-16 13:02 299 12 gusting 19 15.0
2019-Nov-16 12:52 306 9 gusting 16 14.4
2019-Nov-16 12:42 309 6 gusting 16 14.4
2019-Nov-16 12:32 243 6 gusting 12 14.4
2019-Nov-16 12:22 280 6 gusting 12 14.4
2019-Nov-16 12:12 258 1 gusting 11 14.4
2019-Nov-16 12:02 313 5 gusting 14 13.9
2019-Nov-16 11:52 008 6 gusting 17 13.9
2019-Nov-16 11:42 047 6 gusting 13 13.9
2019-Nov-16 11:32 013 5 gusting 12 13.9
2019-Nov-16 11:22 337 6 gusting 16 13.3
2019-Nov-16 11:12 258 10 gusting 16 13.3
2019-Nov-16 11:02 316 7 gusting 15 13.3
2019-Nov-16 10:52 304 3 gusting 11 12.8
2019-Nov-16 10:42 329 5 gusting 13 12.8
2019-Nov-16 10:33 316 5 gusting 13 12.8
2019-Nov-16 10:22 322 6 gusting 16 12.2
2019-Nov-16 10:12 062 4 gusting 15 12.2
2019-Nov-16 10:02 040 6 gusting 14 12.2
2019-Nov-16 09:52 254 6 gusting 13 11.7
2019-Nov-16 09:42 264 7 gusting 14 11.7
2019-Nov-16 09:32 264 7 gusting 14 11.7
2019-Nov-16 09:22 256 5 gusting 12 11.1
2019-Nov-16 09:12 304 6 gusting 12 11.1
2019-Nov-16 09:02 282 6 gusting 11 11.1
2019-Nov-16 08:52 336 5 gusting 11 10.6
2019-Nov-16 08:42 360 1 gusting 6 10.6
2019-Nov-16 08:32 205 0 gusting 2 11.1
2019-Nov-16 08:22 205 0 gusting 1 11.1
2019-Nov-16 08:12 205 10.6
2019-Nov-16 08:02 205 1 gusting 2 10.0
2019-Nov-16 07:52 205 9.4
2019-Nov-16 07:42 222 8.3
2019-Nov-16 07:32 223 7.8
2019-Nov-16 07:22 223 7.8
2019-Nov-16 07:12 223 7.8
2019-Nov-16 07:02 223 0 gusting 2 7.8
2019-Nov-16 06:52 250 0 gusting 3 7.8
2019-Nov-16 06:42 203 0 gusting 4 7.8
2019-Nov-16 06:32 213 0 gusting 4 7.8
2019-Nov-16 06:22 206 7.8
2019-Nov-16 06:12 206 7.8
2019-Nov-16 06:02 202 0 gusting 3 7.8
2019-Nov-16 05:52 199 0 gusting 2 7.8
2019-Nov-16 05:42 192 0 gusting 2 7.8
2019-Nov-16 05:32 182 0 gusting 4 7.8
2019-Nov-16 05:22 240 1 gusting 4 7.8
2019-Nov-16 05:12 232 1 gusting 4 8.3
2019-Nov-16 05:02 222 2 gusting 2 8.3
2019-Nov-16 04:52 169 1 gusting 4 8.3
2019-Nov-16 04:42 182 1 gusting 6 8.3
2019-Nov-16 04:32 185 7.8
2019-Nov-16 04:23 154 0 gusting 5 7.8
2019-Nov-16 04:12 232 1 gusting 4 7.2
2019-Nov-16 04:02 236 7.2
2019-Nov-16 03:52 219 7.2
2019-Nov-16 03:42 195 1 gusting 2 7.2
2019-Nov-16 03:32 193 0 gusting 2 7.2
2019-Nov-16 03:22 193 7.2
2019-Nov-16 03:12 193 1 gusting 2 7.2
2019-Nov-16 03:02 193 0 gusting 2 7.8
2019-Nov-16 02:52 193 7.8
2019-Nov-16 02:42 193 7.8
2019-Nov-16 02:32 193 7.8
2019-Nov-16 02:22 193 7.8
2019-Nov-16 02:12 193 8.3
2019-Nov-16 02:02 193 8.3
2019-Nov-16 01:52 193 8.3
2019-Nov-16 01:42 193 8.3
2019-Nov-16 01:32 193 8.3
2019-Nov-16 01:22 193 8.3
2019-Nov-16 01:12 193 8.9
2019-Nov-16 01:02 193 8.9